User: anonymous   Login
Location: Tyler Bend Campground
(35.9875°N, 92.7606°W)
Time: 12:57:21
(UTC-06:00)
Language:

CZ-2C R/B - Orbit

View from above orbital plane
View from above orbital plane
View from above satellite
View from above satellite

Ground track
Ground track

The orbit data is extracted from the following two-line orbital elements,

1 36089U 09061B   16045.12105655  .00000125  00000-0  42318-4 0  9993
2 36089  98.0575  62.7144 0083341 111.5864 295.2649 14.49543915330852
Epoch (UTC): 14 February 2016 02:54:19
Eccentricity: 0.0083341
inclination: 98.0575°
perigee height: 668 km
apogee height: 786 km
right ascension of ascending node: 62.7144°
argument of perigee: 111.5864°
revolutions per day: 14.49543915
mean anomaly at epoch: 295.2649°
orbit number at epoch: 33085

The dashed part of the orbit path shows where the satellite is in the earth's shadow,  

DLR